• Join FlightAware (Why Join?)
  • Login
  • US Flag 
03:01AM EST


 

Airport Tracker/Info


-or-


 

Live Flight TrackerFlight Track Log ✈ KAP720 ✈ 18-May-2013 ✈ KBOS - KHYA

Flight Track Log - Related Links

Times and Time Zones

All times are in EDT time to prevent confusion due to time zone crossing. See the KAP720 flight status page for this flight to view local times or setup timezone preferences in your user account.

Time Position Orientation Groundspeed Altitude Reporting Facility
EDT Latitude Longitude Course Direction KTS MPH feet Rate Location/Type
06:01PM 42.3667 -70.9833 132° Southeast 108 124 400  Level KA90
06:02PM 42.3333 -70.9333 132° Southeast 115 132 1,600 780 Climbing KA90
06:03PM 42.3167 -70.9000 124° Southeast 117 135 2,300 780 Climbing KA90
06:04PM 42.3000 -70.8667 124° Southeast 124 143 3,100 600 Climbing KA90
06:05PM 42.2833 -70.8167 114° Southeast 141 162 3,500 180 Climbing KA90
06:06PM 42.2500 -70.7833 143° Southeast 148 170 3,500  Level KA90
06:07PM 42.2167 -70.7500 143° Southeast 148 170 3,500  Level KA90
06:08PM 42.1833 -70.7333 160° South 148 170 3,500  Level KA90
06:10PM 42.1480 -70.7081 152° Southeast  Level FlightAware Approximate
06:17PM 41.9484 -70.4953 139° Southeast  Level FlightAware Approximate
06:18PM 41.9210 -70.4633 139° Southeast  Level FlightAware Approximate
06:19PM 41.8935 -70.4313 139° Southeast  Level FlightAware Approximate
06:20PM 41.8660 -70.3996 155° Southeast  Level FlightAware Approximate
06:21PM 41.8331 -70.3790 155° Southeast  Level FlightAware Approximate
06:22PM 41.8002 -70.3584 155° Southeast  Level FlightAware Approximate
06:23PM 41.7672 -70.3378 155° Southeast  Level FlightAware Approximate
06:24PM 41.7343 -70.3173 155° Southeast  Level FlightAware Approximate
06:25PM 41.7026 -70.2936 151° Southeast  Level FlightAware Approximate
06:26PM 41.6709 -70.2698 151° Southeast  Level FlightAware Approximate
06:27PM 41.6667 -70.2667 151° Southeast  Level FlightAware Approximate
06:28PM 41.6693 -70.2804 151° Southeast  Level Estimated
06:29PM 41.6693 -70.2804 151° Southeast  Level Estimated
06:30PM 41.6693 -70.2804 151° Southeast  Level Estimated
06:31PM 41.6693 -70.2804 151° Southeast  Level Estimated
06:32PM 41.6693 -70.2804 151° Southeast  Level Estimated
06:33PM 41.6693 -70.2804 151° Southeast  Level Estimated